Tracking 22458 objects as of 2-Mar-2021
HD Live streaming from Space Station
objects crossing your sky now

BREEZE-KM R/B

Track BREEZE-KM R/B now!
10-day predictions


NORAD ID: 39764
Int'l Code: 2014-028D
Perigee: 1,158.5 km
Apogee: 1,510.5 km
Inclination: 82.4 °
Period: 112.2 minutes
Semi major axis: 7705 km
RCS: Unknown
Launch date: May 23, 2014
Source: Commonwealth of Independent States (former USSR) (CIS)
Launch site: PLESETSK MISSILE AND SPACE COMPLEX (PKMTR)

Note: This is a ROCKET BODY
aabbcc
Your satellite tracking list
Your tracking list is empty




NASA's NSSDC Master Catalog

Two Line Element Set (TLE):
1 39764U 14028D   21061.39948740  .00000018  00000-0  28488-4 0  9991
2 39764  82.4389 116.2154 0228393 216.7716 141.7534 12.83513926317514
Source of the keplerian elements: AFSPC